Location: Regensburg
(48.4565°N, 10.3217°E)
Time: 04:29:35
(UTC+01:00)

Tiangong 2 - Visible Passes

Search period start: 18 February 2018 00:00
Search period end: 28 February 2018 00:00
Orbit: 385 x 388 km, 42.8° (Epoch: 17 February)

Date Brightness Start Highest point End Pass type
(mag) Time Alt. Az. Time Alt. Az. Time Alt. Az.
18 Feb 2.6 18:34:26 10° WSW 18:37:13 29° S 18:40:02 10° ESE visible
18 Feb 3.9 20:11:20 10° WSW 20:12:21 14° SW 20:12:21 14° SW visible
19 Feb 3.1 19:12:13 10° WSW 19:14:45 22° SSW 19:16:19 15° SSE visible
20 Feb 3.8 19:50:51 10° SW 19:52:06 12° SSW 19:52:37 12° SSW visible
21 Feb 3.6 18:51:18 10° WSW 18:53:25 17° SSW 18:55:30 10° SSE visible
23 Feb 4.1 18:30:48 10° SW 18:31:59 12° SSW 18:33:11 10° S visible
